TimeEST,TemperatureF,Dew PointF,Humidity,Sea Level PressureIn,VisibilityMPH,Wind Direction,Wind SpeedMPH,Gust SpeedMPH,PrecipitationIn,Events,Conditions,WindDirDegrees,DateUTC
12:31 AM,30.2,19.4,64,30.09,10.0,WSW,5.8,-,N/A,,Overcast,250,2012-11-25 05:31:00
12:53 AM,30.0,18.0,61,30.11,10.0,West,8.1,-,N/A,,Overcast,260,2012-11-25 05:53:00
1:53 AM,30.0,18.0,61,30.11,10.0,West,8.1,-,N/A,,Overcast,260,2012-11-25 06:53:00
2:53 AM,28.9,19.0,67,30.11,10.0,WSW,3.5,-,N/A,,Overcast,240,2012-11-25 07:53:00
3:04 AM,28.4,19.4,69,30.07,10.0,SW,3.5,-,N/A,,Mostly Cloudy,230,2012-11-25 08:04:00
3:53 AM,28.9,19.9,69,30.08,10.0,South,3.5,-,N/A,,Mostly Cloudy,190,2012-11-25 08:53:00
4:53 AM,28.9,19.0,67,30.09,10.0,SSW,6.9,-,N/A,,Overcast,200,2012-11-25 09:53:00
5:53 AM,28.9,19.0,67,30.07,10.0,South,6.9,-,N/A,,Mostly Cloudy,190,2012-11-25 10:53:00
6:53 AM,28.9,19.0,67,30.07,10.0,South,6.9,-,N/A,,Overcast,190,2012-11-25 11:53:00
7:53 AM,30.0,19.0,64,30.05,10.0,SSW,9.2,-,N/A,,Mostly Cloudy,210,2012-11-25 12:53:00
8:53 AM,30.0,19.0,64,30.04,10.0,SSW,12.7,-,N/A,,Overcast,200,2012-11-25 13:53:00
9:53 AM,30.9,19.9,64,30.04,10.0,SSW,11.5,-,N/A,,Overcast,210,2012-11-25 14:53:00
10:53 AM,33.1,21.0,61,30.01,10.0,SSW,13.8,-,N/A,,Overcast,200,2012-11-25 15:53:00
11:53 AM,35.1,21.0,57,29.97,10.0,SW,10.4,-,N/A,,Overcast,220,2012-11-25 16:53:00
12:53 PM,39.0,19.9,46,29.93,10.0,SW,15.0,21.9,N/A,,Clear,230,2012-11-25 17:53:00
1:53 PM,41.0,19.9,43,29.91,10.0,WSW,11.5,18.4,N/A,,Clear,240,2012-11-25 18:53:00
2:53 PM,43.0,21.0,42,29.90,10.0,WSW,15.0,19.6,N/A,,Clear,240,2012-11-25 19:53:00
3:53 PM,43.0,21.9,43,29.91,10.0,WSW,10.4,-,N/A,,Clear,250,2012-11-25 20:53:00
4:53 PM,39.9,21.9,49,29.93,10.0,WSW,5.8,-,N/A,,Clear,240,2012-11-25 21:53:00
5:53 PM,37.9,21.9,53,29.94,10.0,SW,3.5,-,N/A,,Clear,230,2012-11-25 22:53:00
6:53 PM,36.0,21.9,57,29.96,10.0,SW,3.5,-,N/A,,Clear,220,2012-11-25 23:53:00
7:53 PM,36.0,21.9,57,29.98,10.0,SSW,3.5,-,N/A,,Clear,200,2012-11-26 00:53:00
8:53 PM,35.1,21.9,59,30.00,10.0,SSW,4.6,-,N/A,,Clear,200,2012-11-26 01:53:00
9:53 PM,35.1,23.0,61,30.00,10.0,Calm,Calm,-,N/A,,Clear,0,2012-11-26 02:53:00
10:53 PM,30.9,24.1,76,30.01,10.0,Calm,Calm,-,N/A,,Clear,0,2012-11-26 03:53:00
11:53 PM,33.1,24.1,70,30.03,10.0,SW,3.5,-,N/A,,Clear,220,2012-11-26 04:53:00